Location: Alexandria
(38.8050°N, 77.0470°W)
Time: 13:40:24
(UTC-05:00)

Hubble Space Telescope - Pass Details

Date: 17 February 2018
Orbit: 537 x 541 km, 28.5° (Epoch: 22 February)

Event Time Altitude Azimuth Distance (km) Brightness Sun altitude
Rises 06:11:23 0° 213° (SSW) 2,670 4.1 -9.5°
Reaches altitude 10° 06:15:45 10° 170° (S) 1,783 3.7 -8.7°
Maximum altitude 06:16:19 10° 162° (SSE) 1,769 3.8 -8.6°
Drops below altitude 10° 06:16:52 10° 154° (SSE) 1,784 3.9 -8.5°
Sets 06:21:15 0° 111° (ESE) 2,679 6.4 -7.6°
